z/d,0,0,50,50,100,100,200,200,300,300,400,400,500,500,750,750,1000,1000,2000,2000,3000,3000,4000,4000,4700,4700
2016.10.21-01:00,.78,93.42,.61,88.12,.75,77.12,.93,81.51,1.04,74.16,.85,69.80,.81,66.91,.53,55.15,.33,63.42,.20,59.96,.18,44.31,.22,43.37,.02,90.00
2016.10.21-02:00,.76,98.69,.58,86.52,.74,76.75,.91,82.92,1.05,77.44,.86,71.95,.83,69.16,.58,57.86,.36,63.26,.21,62.60,.19,40.98,.23,37.84,.02,90.00
2016.10.21-03:00,.76,102.42,.58,82.34,.74,73.52,.87,81.71,1.03,79.79,.84,73.11,.81,71.06,.62,61.63,.39,64.73,.21,66.06,.19,36.94,.22,30.99,.01,90.00
2016.10.21-04:00,.75,103.23,.61,79.81,.76,70.21,.83,77.88,.98,80.34,.80,72.12,.77,71.70,.62,65.85,.40,67.03,.19,69.76,.18,32.44,.21,23.65,.00,90.00
2016.10.21-05:00,.71,103.77,.61,77.98,.79,68.50,.81,71.94,.93,78.52,.77,68.62,.74,70.85,.61,70.75,.41,70.44,.17,73.89,.16,26.98,.19,15.64,.01,270.00
2016.10.21-06:00,.64,104.42,.60,74.52,.81,67.94,.82,66.09,.90,75.63,.77,64.95,.72,70.22,.58,76.80,.40,75.53,.14,78.72,.14,20.55,.18,7.80,.01,270.00
2016.10.21-07:00,.59,103.49,.62,71.77,.85,68.82,.86,62.53,.88,73.29,.78,62.84,.69,70.25,.51,82.61,.35,80.28,.11,83.34,.12,18.58,.18,6.06,.01,270.00
2016.10.21-08:00,.54,103.10,.65,70.35,.89,70.93,.91,61.87,.89,72.12,.82,62.71,.69,70.47,.44,85.45,.28,81.84,.08,86.40,.12,22.46,.17,10.08,.01,270.00
2016.10.21-09:00,.47,106.90,.65,69.19,.89,73.68,.96,63.75,.91,72.44,.87,64.40,.71,71.20,.39,84.27,.23,78.79,.06,83.37,.11,29.06,.17,16.26,.00,90.00
2016.10.21-10:00,.38,109.68,.63,67.03,.87,76.17,1.00,66.94,.94,73.18,.93,66.38,.76,71.71,.37,80.26,.20,73.31,.06,71.59,.11,36.43,.18,22.83,.01,90.00
2016.10.21-11:00,.27,106.30,.62,64.13,.84,77.95,1.03,70.85,.96,73.87,.99,68.03,.80,71.75,.37,75.21,.20,68.66,.06,56.99,.12,42.20,.19,28.09,.01,90.00
2016.10.21-12:00,.19,88.52,.63,61.68,.80,78.74,1.04,75.14,.98,74.73,1.03,69.64,.83,71.71,.39,70.23,.22,64.49,.07,46.14,.13,46.62,.20,32.36,.02,90.00
2016.10.21-13:00,.21,60.57,.67,60.41,.79,78.34,1.05,79.33,1.00,76.16,1.05,71.93,.85,72.71,.43,67.23,.25,61.46,.09,37.52,.13,47.66,.21,33.69,.02,90.00
2016.10.21-14:00,.32,45.72,.74,60.02,.81,76.90,1.04,82.51,1.00,77.80,1.06,74.84,.85,74.84,.46,66.91,.28,61.02,.10,32.49,.12,44.76,.21,31.51,.02,90.00
2016.10.21-15:00,.46,42.90,.81,61.09,.84,75.43,1.00,84.02,.97,78.88,1.02,77.65,.82,77.11,.49,67.91,.32,62.38,.11,32.48,.11,37.85,.20,26.49,.01,90.00
2016.10.21-16:00,.67,47.46,.89,63.96,.88,74.82,.93,83.31,.92,78.60,.95,79.69,.75,78.72,.49,68.94,.34,63.85,.12,35.41,.09,27.17,.18,20.37,.01,90.00
2016.10.21-17:00,.82,53.03,.96,67.90,.92,75.44,.88,80.59,.87,76.92,.88,80.93,.69,79.73,.47,69.96,.35,64.83,.11,38.27,.08,12.38,.17,14.40,.00,270.00
2016.10.21-18:00,.90,56.91,1.00,71.46,.94,76.45,.84,76.28,.84,74.37,.83,81.62,.64,80.48,.45,71.90,.35,66.75,.11,40.51,.07,354.93,.15,8.94,.01,270.00
2016.10.21-19:00,.98,59.49,1.02,74.13,.96,77.74,.84,71.69,.84,71.92,.80,82.03,.60,80.77,.41,74.41,.33,70.15,.10,43.28,.08,346.29,.14,7.41,.01,270.00
2016.10.21-20:00,1.04,62.46,1.03,76.96,.96,79.64,.87,68.84,.86,70.69,.79,82.11,.59,79.68,.37,75.09,.29,72.97,.10,46.18,.08,349.99,.14,12.02,.01,270.00
2016.10.21-21:00,1.09,66.42,1.04,80.62,.96,81.64,.92,68.83,.91,71.36,.81,81.81,.61,77.10,.35,72.50,.26,73.21,.11,47.43,.09,.72,.14,20.63,.00,270.00
2016.10.21-22:00,1.12,71.09,1.02,84.86,.94,83.19,.97,71.19,.95,73.05,.84,80.96,.65,73.76,.36,68.53,.25,71.60,.12,48.34,.10,13.54,.15,29.06,.00,90.00
2016.10.21-23:00,1.12,76.31,.97,89.27,.90,83.88,1.01,75.05,.98,74.71,.86,79.19,.71,70.36,.41,66.06,.27,70.67,.14,51.33,.13,24.02,.17,33.90,.01,90.00
2016.10.21-24:00,1.13,81.35,.91,92.59,.87,83.22,1.03,79.12,.99,75.53,.87,76.35,.76,67.19,.47,64.72,.29,69.88,.17,55.59,.16,31.83,.19,35.87,.01,90.00
2016.10.22-01:00,1.14,85.85,.87,93.63,.85,81.20,1.02,82.31,.98,75.53,.88,73.26,.82,65.07,.52,63.98,.31,67.99,.19,59.59,.18,37.38,.20,36.02,.01,90.00
2016.10.22-02:00,1.15,89.08,.83,91.87,.86,77.99,.99,83.74,.97,75.08,.90,71.24,.86,64.81,.57,64.41,.34,65.95,.21,63.19,.20,40.47,.22,34.04,.01,90.00
2016.10.22-03:00,1.16,91.38,.82,88.69,.87,74.54,.95,83.36,.96,74.93,.91,71.22,.89,66.66,.60,66.62,.36,65.62,.21,66.21,.21,40.10,.22,28.58,.01,90.00
2016.10.22-04:00,1.14,93.48,.83,85.65,.89,71.24,.90,80.49,.94,74.10,.91,71.75,.88,68.89,.62,69.51,.39,67.00,.21,69.34,.20,37.86,.23,21.77,.00,90.00
2016.10.22-05:00,1.10,96.61,.83,83.96,.93,69.29,.86,75.67,.92,72.29,.90,72.12,.85,70.74,.61,72.61,.41,69.21,.20,71.71,.19,34.73,.23,15.81,.00,270.00
2016.10.22-06:00,1.03,99.47,.83,81.80,.97,67.74,.86,70.02,.92,70.29,.88,72.63,.81,72.47,.57,76.34,.40,71.78,.17,72.02,.17,32.15,.22,12.94,.00,270.00
2016.10.22-07:00,.96,100.48,.85,79.53,1.02,66.13,.90,65.49,.93,69.02,.87,73.26,.77,74.13,.50,80.77,.36,74.47,.14,69.65,.16,31.43,.22,13.89,.00,90.00
2016.10.22-08:00,.86,100.98,.85,77.98,1.05,65.46,.94,63.56,.95,68.81,.86,73.82,.74,75.25,.44,84.46,.32,76.21,.11,65.17,.14,31.97,.21,16.74,.01,90.00
2016.10.22-09:00,.74,100.30,.84,76.40,1.07,66.71,.99,64.78,.98,69.95,.88,74.70,.74,75.84,.39,84.97,.27,74.65,.09,58.52,.13,33.40,.21,20.40,.01,90.00
2016.10.22-10:00,.62,96.74,.85,74.80,1.09,69.78,1.03,67.98,1.01,71.58,.90,75.45,.76,75.81,.36,81.39,.25,69.64,.08,51.19,.12,35.96,.20,24.47,.02,90.00
2016.10.22-11:00,.52,90.17,.86,73.90,1.08,74.05,1.05,71.60,1.03,72.75,.92,75.42,.78,74.98,.36,75.41,.24,65.29,.09,46.59,.11,38.34,.20,27.75,.02,90.00
2016.10.22-12:00,.45,79.45,.88,73.86,1.05,78.47,1.06,74.64,1.04,73.39,.93,74.68,.80,73.49,.37,69.11,.25,63.39,.10,45.88,.12,40.59,.20,30.48,.02,90.00
2016.10.22-13:00,.45,67.85,.93,75.77,1.03,82.70,1.07,77.50,1.06,74.70,.94,74.65,.82,72.60,.40,63.72,.26,62.02,.12,45.91,.12,40.78,.21,31.60,.02,90.00
2016.10.22-14:00,.53,58.02,1.00,78.46,1.03,85.27,1.08,80.01,1.09,76.91,.96,75.91,.84,73.01,.44,60.77,.29,61.59,.13,45.76,.12,37.01,.20,29.68,.02,90.00
2016.10.22-15:00,.60,47.99,1.02,80.74,1.01,85.97,1.07,81.70,1.09,79.53,.95,77.88,.83,74.30,.48,60.41,.32,62.90,.14,46.97,.12,30.76,.20,25.73,.02,90.00
2016.10.22-16:00,.71,42.71,1.02,82.46,1.00,85.91,1.02,81.92,1.05,81.77,.90,79.58,.79,75.52,.51,61.70,.35,65.72,.15,49.16,.12,23.06,.20,20.60,.01,90.00
2016.10.22-17:00,.83,50.00,1.03,84.98,.99,86.82,.98,81.02,1.00,83.01,.83,80.25,.74,75.89,.53,63.42,.37,68.30,.15,50.76,.12,16.19,.19,16.28,.00,90.00
2016.10.22-18:00,.90,56.65,1.00,87.52,.97,87.61,.96,79.11,.95,82.62,.79,79.30,.70,75.25,.53,65.46,.38,70.12,.14,50.89,.12,11.56,.18,14.15,.00,90.00
2016.10.22-19:00,.95,61.85,.96,87.44,.93,87.24,.95,76.41,.92,81.03,.76,77.55,.68,74.84,.52,69.15,.36,72.80,.13,49.47,.11,9.13,.17,13.85,.00,270.00
2016.10.22-20:00,.99,66.11,.92,84.74,.89,85.92,.96,74.18,.90,79.02,.76,75.79,.68,74.81,.49,73.89,.34,76.08,.12,48.08,.12,9.85,.17,15.39,.00,270.00
2016.10.22-21:00,1.05,70.01,.92,81.99,.87,83.95,.99,73.91,.91,77.53,.78,74.43,.70,74.83,.48,77.77,.31,77.74,.12,46.94,.12,13.00,.16,18.18,.00,90.00
2016.10.22-22:00,1.07,73.28,.93,80.72,.87,82.15,1.03,75.32,.93,76.65,.82,73.39,.74,74.72,.46,79.80,.28,77.17,.13,47.00,.12,18.66,.16,22.06,.00,90.00
2016.10.22-23:00,1.05,77.03,.91,81.26,.87,81.27,1.05,77.57,.96,75.99,.86,72.29,.78,74.24,.46,79.92,.27,75.74,.14,49.78,.13,25.12,.17,25.25,.00,90.00
2016.10.22-24:00,.99,81.71,.86,82.78,.85,80.92,1.05,79.97,.97,75.43,.89,70.82,.82,73.09,.46,78.15,.28,74.33,.16,54.84,.15,31.28,.18,27.22,.01,90.00
2016.10.23-01:00,.94,86.11,.82,84.06,.85,80.42,1.04,82.18,.99,75.40,.92,69.48,.85,71.74,.48,75.03,.29,72.31,.19,59.75,.17,36.01,.20,27.91,.01,90.00
2016.10.23-02:00,.92,89.18,.82,83.47,.86,79.05,1.03,83.81,1.00,76.32,.94,69.13,.87,71.27,.50,72.41,.32,70.09,.21,63.09,.19,38.77,.22,27.42,.01,90.00
2016.10.23-03:00,.90,90.52,.84,80.76,.88,76.59,1.01,84.30,1.00,77.66,.96,69.67,.89,71.84,.52,71.00,.34,68.27,.22,65.07,.20,40.19,.23,26.41,.01,90.00
2016.10.23-04:00,.89,92.07,.87,78.11,.91,74.35,.99,83.35,1.00,78.49,.97,70.53,.89,73.19,.54,71.32,.36,68.24,.22,66.34,.20,39.75,.24,24.14,.01,90.00
2016.10.23-05:00,.90,94.68,.91,77.72,.95,73.42,.97,80.76,.99,77.69,.98,70.87,.87,74.51,.54,72.63,.38,69.38,.22,66.99,.20,38.23,.25,21.57,.01,90.00
2016.10.23-06:00,.88,99.84,.93,79.52,.97,73.37,.96,76.99,.97,75.56,.99,71.14,.85,75.81,.52,73.92,.38,69.81,.20,66.21,.19,36.99,.25,20.44,.01,90.00
2016.10.23-07:00,.81,105.82,.91,80.98,.96,72.08,.95,72.36,.96,73.09,.99,71.99,.82,77.50,.49,75.23,.37,69.73,.18,64.12,.18,36.22,.25,20.96,.02,90.00
2016.10.23-08:00,.71,109.51,.86,80.76,.95,69.38,.96,68.39,.96,71.29,.98,73.56,.79,79.41,.45,76.63,.35,70.18,.16,61.05,.16,35.05,.24,22.14,.02,90.00
2016.10.23-09:00,.62,110.39,.83,78.99,.97,67.98,.99,67.16,.98,71.10,.99,75.71,.76,80.98,.42,77.06,.33,70.69,.14,55.97,.15,33.02,.24,23.39,.02,90.00
2016.10.23-10:00,.53,108.70,.82,76.20,.99,69.13,1.01,68.36,1.00,71.94,.99,77.59,.75,81.23,.40,75.36,.31,70.40,.13,49.20,.14,31.28,.23,24.98,.02,90.00
2016.10.23-11:00,.42,107.08,.81,73.77,1.00,72.20,1.02,70.79,1.02,72.90,1.00,78.68,.75,79.97,.40,72.06,.30,69.66,.13,43.97,.13,30.33,.21,26.58,.03,90.00
2016.10.23-12:00,.31,102.68,.79,71.95,.98,75.91,1.03,73.08,1.03,73.54,1.00,79.08,.76,77.82,.41,68.38,.29,68.84,.14,43.13,.13,31.20,.21,28.49,.03,90.00
2016.10.23-13:00,.25,89.17,.82,70.84,.97,79.35,1.04,74.56,1.06,74.22,1.01,79.50,.77,75.77,.43,64.84,.28,67.46,.16,45.92,.13,33.00,.20,29.94,.03,90.00
2016.10.23-14:00,.30,72.12,.89,71.23,.99,82.19,1.07,75.79,1.09,75.96,1.02,80.96,.79,74.96,.46,62.62,.28,65.93,.17,49.84,.13,32.21,.20,28.45,.02,90.00
2016.10.23-15:00,.40,56.95,.94,71.62,.99,83.57,1.08,76.60,1.11,78.36,1.01,83.11,.80,75.04,.50,62.09,.31,65.50,.17,54.46,.14,29.94,.21,25.23,.02,90.00
2016.10.23-16:00,.52,48.27,.96,72.27,.97,84.12,1.07,76.72,1.10,80.69,.97,85.09,.78,75.06,.54,62.79,.34,66.34,.18,58.48,.14,27.66,.21,22.14,.02,90.00
2016.10.23-17:00,.63,50.66,.98,74.94,.95,85.01,1.05,76.22,1.06,82.25,.91,85.91,.75,74.17,.57,64.24,.37,67.72,.18,60.61,.14,25.92,.21,20.23,.02,90.00
2016.10.23-18:00,.72,58.69,1.01,79.52,.93,86.26,1.05,75.60,1.02,82.68,.84,85.04,.73,72.28,.58,66.09,.39,68.51,.18,60.02,.14,25.15,.21,20.16,.02,90.00
2016.10.23-19:00,.79,64.81,1.02,82.58,.91,86.26,1.06,74.99,.98,81.98,.80,83.20,.72,71.05,.58,69.44,.38,69.72,.16,57.12,.14,24.43,.20,20.85,.01,90.00
2016.10.23-20:00,.83,66.01,.99,82.14,.87,83.81,1.07,74.39,.96,80.48,.79,81.46,.73,71.64,.57,74.82,.37,72.40,.15,53.61,.14,22.76,.19,20.65,.01,90.00
2016.10.23-21:00,.86,65.57,.95,79.72,.84,79.65,1.08,74.69,.96,79.19,.80,80.31,.76,73.44,.57,80.71,.36,75.22,.14,49.91,.13,20.91,.19,19.81,.01,90.00
2016.10.23-22:00,.85,66.28,.94,77.67,.84,75.76,1.10,76.29,.97,78.52,.81,79.43,.80,75.21,.55,85.33,.34,76.77,.14,46.92,.13,20.53,.19,19.51,.01,90.00
2016.10.23-23:00,.84,67.75,.92,76.13,.85,72.89,1.10,78.45,.97,77.88,.82,77.77,.82,75.92,.52,87.72,.32,76.93,.14,46.76,.14,23.25,.19,20.87,.01,90.00
2016.10.23-24:00,.83,70.12,.89,75.39,.86,71.71,1.08,80.95,.97,77.52,.82,75.44,.84,75.92,.50,87.86,.31,76.11,.16,49.08,.14,27.45,.19,22.74,.01,90.00
2016.10.24-01:00,.82,73.21,.89,75.81,.89,72.20,1.06,83.39,.99,77.56,.84,72.98,.86,75.65,.48,85.97,.31,74.56,.18,52.44,.15,31.31,.20,24.10,.01,90.00
2016.10.24-02:00,.84,76.81,.90,77.05,.93,73.50,1.04,84.99,1.00,77.59,.87,70.82,.88,75.37,.47,82.99,.32,73.18,.20,56.01,.17,34.19,.21,24.68,.02,90.00
2016.10.24-03:00,.83,80.27,.90,77.74,.95,74.06,1.01,84.68,1.01,76.83,.90,68.66,.89,74.74,.47,79.63,.34,72.83,.22,59.65,.18,36.75,.23,25.33,.02,90.00
2016.10.24-04:00,.80,85.99,.91,78.62,.97,74.49,.98,82.60,1.01,75.53,.94,67.17,.89,74.18,.48,76.86,.36,73.66,.23,62.24,.20,37.96,.25,25.31,.02,90.00
2016.10.24-05:00,.77,95.85,.93,81.09,.99,75.90,.96,80.02,1.03,74.56,.98,67.19,.90,74.36,.49,75.10,.38,74.81,.24,63.07,.20,37.52,.26,24.61,.02,90.00
2016.10.24-06:00,.75,106.97,.95,84.16,1.01,77.56,.97,77.51,1.04,74.05,1.02,68.27,.90,75.17,.48,73.62,.38,74.78,.23,62.41,.21,37.04,.27,24.90,.03,90.00
2016.10.24-07:00,.67,114.96,.94,85.75,1.01,78.22,.98,74.95,1.05,73.81,1.04,70.00,.89,76.71,.47,72.69,.37,73.60,.22,60.79,.20,36.87,.27,26.16,.03,90.00
2016.10.24-08:00,.49,118.94,.88,84.23,.97,76.90,.97,72.04,1.03,73.31,1.04,72.11,.87,78.93,.46,73.26,.36,72.78,.20,59.06,.19,36.33,.27,27.27,.03,90.00
2016.10.24-09:00,.28,111.57,.79,79.70,.92,74.33,.96,69.85,1.00,72.88,1.03,74.58,.85,81.47,.45,74.43,.35,72.26,.19,56.73,.18,35.48,.26,28.43,.04,90.00
2016.10.24-10:00,.18,75.96,.72,74.12,.88,72.74,.96,69.66,1.00,73.20,1.02,77.25,.84,83.62,.44,74.67,.33,71.53,.17,52.99,.16,34.03,.24,29.41,.04,90.00
2016.10.24-11:00,.21,33.75,.69,69.61,.86,72.81,.96,70.55,1.00,73.64,1.02,79.23,.82,84.38,.43,73.50,.32,71.03,.16,49.28,.15,32.33,.22,29.85,.03,90.00
2016.10.24-12:00,.30,21.41,.70,67.90,.84,74.27,.96,71.75,1.01,73.99,1.01,80.46,.81,83.89,.42,70.77,.31,70.21,.17,47.48,.14,31.57,.21,29.96,.03,90.00
2016.10.24-13:00,.39,19.57,.73,68.01,.84,75.99,.98,72.76,1.02,74.46,1.00,81.31,.78,82.71,.42,66.61,.29,68.53,.17,48.98,.13,32.42,.20,29.60,.03,90.00
2016.10.24-14:00,.48,19.66,.77,68.39,.85,76.99,1.01,73.84,1.05,75.53,.99,82.27,.76,81.52,.43,62.61,.29,66.79,.18,52.96,.13,32.77,.19,27.37,.03,90.00
2016.10.24-15:00,.56,19.28,.79,67.76,.85,76.63,1.05,75.12,1.09,77.24,.97,83.38,.75,80.60,.46,61.02,.30,66.60,.19,57.65,.14,31.33,.20,23.40,.02,90.00
2016.10.24-16:00,.64,19.60,.78,66.16,.83,75.00,1.06,76.21,1.10,79.14,.95,84.02,.73,79.46,.50,61.73,.33,67.84,.20,61.52,.15,29.77,.21,20.38,.02,90.00
2016.10.24-17:00,.71,23.44,.78,65.68,.82,73.44,1.05,76.93,1.08,80.75,.91,83.75,.72,77.23,.55,63.11,.36,68.73,.20,63.64,.15,29.40,.22,19.96,.02,90.00
2016.10.24-18:00,.75,28.71,.80,67.96,.82,73.30,1.03,77.51,1.04,81.82,.86,82.68,.70,73.98,.58,64.64,.37,68.52,.20,63.73,.16,29.88,.23,21.71,.03,90.00
2016.10.24-19:00,.79,34.70,.82,70.55,.83,73.51,1.01,77.76,.99,82.02,.82,81.01,.69,70.91,.61,67.25,.38,68.25,.19,61.98,.16,29.64,.23,23.82,.03,90.00
2016.10.24-20:00,.83,38.80,.83,70.34,.84,72.33,.98,77.22,.94,81.06,.79,79.04,.71,69.40,.62,71.82,.39,69.47,.17,58.83,.15,27.67,.23,24.86,.03,90.00
2016.10.24-21:00,.87,40.28,.83,67.30,.83,69.77,.95,76.11,.90,79.21,.78,77.33,.73,69.74,.63,77.73,.39,71.80,.16,54.19,.15,25.02,.22,25.28,.03,90.00
2016.10.24-22:00,.91,41.00,.84,63.50,.83,67.11,.92,75.28,.89,77.30,.79,76.18,.77,71.22,.61,83.56,.38,74.11,.15,48.44,.15,22.75,.22,25.45,.02,90.00
2016.10.24-23:00,.94,42.80,.86,61.37,.83,65.36,.90,75.00,.88,75.66,.80,75.13,.79,72.38,.58,87.94,.36,76.45,.15,44.82,.14,21.59,.21,24.93,.02,90.00
2016.10.24-24:00,.94,45.61,.87,61.12,.85,64.58,.88,75.05,.90,74.37,.82,73.83,.81,72.54,.54,90.13,.35,78.89,.16,45.10,.15,22.12,.20,23.68,.02,90.00
2016.10.25-01:00,.92,48.02,.87,61.27,.86,64.45,.88,75.28,.93,73.90,.84,72.69,.84,72.19,.49,89.92,.34,80.72,.17,47.77,.16,24.77,.20,22.82,.02,90.00
2016.10.25-02:00,.88,49.85,.86,61.16,.87,64.70,.88,75.22,.96,74.11,.87,71.68,.85,71.79,.45,87.61,.33,81.56,.19,51.42,.17,28.64,.21,22.74,.02,90.00
2016.10.25-03:00,.84,50.74,.86,60.52,.89,64.78,.89,74.30,1.00,74.57,.89,70.64,.87,71.63,.43,84.19,.33,81.66,.21,55.03,.18,32.58,.22,23.42,.02,90.00
2016.10.25-04:00,.80,50.79,.86,59.89,.90,64.62,.91,72.59,1.02,75.02,.92,69.53,.89,71.80,.42,80.37,.33,81.00,.23,57.92,.20,35.96,.24,24.81,.02,90.00
2016.10.25-05:00,.77,51.63,.88,60.89,.92,65.27,.94,70.90,1.03,75.41,.95,68.51,.90,72.25,.43,76.11,.34,78.91,.25,59.73,.21,38.57,.25,26.75,.03,90.00
2016.10.25-06:00,.76,54.71,.92,64.65,.95,67.64,.97,70.20,1.03,75.76,.97,68.04,.92,73.18,.45,71.57,.33,74.99,.26,60.06,.22,40.44,.27,29.18,.03,90.00
2016.10.25-07:00,.75,58.10,.96,69.26,.98,70.58,1.00,70.20,1.01,75.80,.99,68.47,.92,74.88,.46,68.08,.33,70.21,.25,59.03,.22,41.65,.28,31.68,.04,90.00
2016.10.25-08:00,.74,57.70,.97,71.51,.97,72.01,1.00,69.70,.97,75.04,1.01,69.72,.91,77.47,.48,67.54,.33,66.97,.24,57.41,.22,41.80,.29,33.15,.05,90.00
2016.10.25-09:00,.72,50.28,.94,70.51,.93,71.61,.99,68.99,.94,73.93,1.01,72.08,.90,80.88,.48,69.59,.33,65.25,.23,55.18,.20,40.89,.28,33.60,.05,90.00
2016.10.25-10:00,.94,41.20,.88,67.16,.87,70.07,.99,68.95,.92,73.28,1.03,75.57,.89,84.58,.48,72.31,.34,63.58,.22,52.56,.18,39.32,.26,33.63,.05,90.00
2016.10.25-11:00,1.10,37.42,.82,63.36,.82,68.03,.98,69.49,.92,72.88,1.03,79.15,.87,87.23,.48,73.86,.34,62.04,.21,50.72,.16,36.22,.24,32.32,.05,90.00
2016.10.25-12:00,1.22,39.17,.77,61.64,.78,66.51,.98,70.46,.93,72.59,1.03,82.04,.84,88.04,.47,73.77,.35,62.06,.20,51.58,.14,32.08,.22,29.67,.04,90.00
2016.10.25-13:00,1.30,44.59,.72,62.03,.76,65.59,.99,71.83,.94,72.54,1.00,83.91,.79,86.94,.45,72.06,.36,63.53,.19,54.31,.13,26.62,.21,25.33,.03,90.00
2016.10.25-14:00,1.35,51.70,.69,62.48,.77,64.67,1.00,73.51,.97,72.97,.96,84.65,.74,84.39,.44,69.61,.36,66.17,.19,58.06,.13,23.76,.20,22.08,.03,90.00
2016.10.25-15:00,1.38,58.97,.68,61.04,.81,63.24,1.03,75.13,1.00,73.72,.91,84.29,.71,81.19,.44,67.55,.36,69.46,.20,61.41,.14,23.79,.21,20.83,.03,90.00
2016.10.25-16:00,1.36,65.56,.69,57.32,.85,61.50,1.04,76.30,1.02,74.44,.88,82.94,.69,78.08,.46,66.60,.36,72.62,.20,63.71,.15,25.42,.22,21.30,.03,90.00
2016.10.25-17:00,1.24,70.15,.72,53.12,.89,60.42,1.04,77.08,1.03,75.06,.85,81.16,.70,75.78,.50,66.57,.38,74.60,.21,64.34,.17,27.69,.24,23.02,.03,90.00
2016.10.25-18:00,1.14,72.56,.78,51.14,.94,60.99,1.03,77.49,1.03,75.45,.82,79.24,.70,74.03,.53,66.74,.39,75.02,.21,63.44,.18,30.52,.25,25.92,.04,90.00
2016.10.25-19:00,1.12,75.79,.87,52.46,1.00,63.41,1.02,77.58,1.02,75.73,.80,77.47,.71,72.67,.55,67.27,.39,74.31,.21,61.23,.19,32.68,.26,28.76,.04,90.00
2016.10.25-20:00,1.12,79.33,.95,55.45,1.04,66.52,1.00,77.19,1.02,76.23,.80,76.26,.72,71.96,.57,68.77,.40,73.44,.20,57.96,.19,33.06,.26,30.36,.04,90.00
2016.10.25-21:00,1.09,81.51,1.01,58.21,1.05,68.94,.98,76.17,1.02,77.12,.81,75.76,.74,71.93,.58,71.43,.39,73.21,.19,54.04,.19,32.07,.26,30.90,.04,90.00
2016.10.25-22:00,1.04,82.43,1.06,60.06,1.05,70.29,.98,75.07,1.02,78.53,.83,76.01,.76,72.63,.57,75.12,.37,73.65,.18,48.91,.18,30.22,.26,30.80,.04,90.00
2016.10.25-23:00,.97,80.56,1.08,61.00,1.03,71.00,.97,74.65,1.01,80.27,.84,76.70,.78,73.72,.56,79.27,.36,74.61,.18,43.05,.18,28.19,.25,30.30,.03,90.00
2016.10.25-24:00,.92,77.49,1.10,62.00,1.02,72.12,.97,75.13,.98,81.78,.83,76.86,.79,74.20,.55,82.77,.34,76.13,.18,39.65,.17,26.77,.23,29.01,.03,90.00
2016.10.26-01:00,.88,74.69,1.12,63.87,1.00,74.12,.97,76.11,.95,82.47,.82,75.76,.79,73.48,.53,84.63,.33,77.95,.18,40.79,.16,26.62,.22,26.81,.02,90.00
2016.10.26-02:00,.85,73.23,1.14,66.85,.99,76.52,.98,77.23,.92,82.23,.82,73.77,.79,72.21,.50,84.74,.33,79.54,.20,45.25,.16,27.89,.22,24.67,.02,90.00
2016.10.26-03:00,.84,73.20,1.16,70.69,.97,78.49,.98,78.07,.90,80.95,.83,71.62,.80,71.29,.47,83.50,.32,80.27,.22,50.39,.17,30.52,.23,24.27,.02,90.00
2016.10.26-04:00,.84,73.88,1.17,75.03,.96,79.72,.99,78.28,.90,78.76,.86,69.94,.82,71.27,.45,81.52,.32,79.76,.24,54.20,.18,33.87,.24,26.07,.03,90.00
2016.10.26-05:00,.86,75.07,1.17,79.72,.96,80.52,1.00,77.84,.91,76.13,.90,68.95,.84,71.95,.44,79.15,.32,77.98,.26,56.39,.19,37.16,.26,29.17,.04,90.00
2016.10.26-06:00,.91,77.13,1.18,84.79,.96,81.44,1.01,76.99,.93,73.70,.94,68.61,.86,72.92,.45,76.48,.33,75.06,.27,57.32,.21,39.75,.28,32.34,.04,90.00
2016.10.26-07:00,.96,80.43,1.18,90.20,.95,82.77,1.01,76.19,.96,72.14,.98,69.05,.88,74.06,.46,73.78,.33,71.18,.28,57.49,.22,41.42,.29,34.87,.05,90.00
2016.10.26-08:00,.99,83.89,1.16,95.11,.94,83.72,1.01,75.47,.98,71.68,1.02,70.31,.89,75.52,.47,71.60,.34,66.91,.28,57.62,.22,41.88,.29,36.11,.06,90.00
2016.10.26-09:00,.98,86.87,1.08,98.19,.89,82.93,1.01,74.67,1.00,72.05,1.04,72.33,.88,77.49,.48,70.56,.35,63.13,.27,58.13,.21,40.97,.29,35.97,.06,90.00
2016.10.26-10:00,.90,88.92,.97,98.21,.84,79.81,.99,74.07,1.00,72.92,1.04,75.01,.87,79.98,.49,70.74,.36,60.35,.26,58.53,.20,38.92,.28,35.17,.06,90.00
2016.10.26-11:00,.81,87.73,.84,94.21,.81,75.02,.98,74.10,.99,74.05,1.04,78.12,.86,82.66,.49,71.69,.37,58.92,.23,57.92,.18,35.87,.26,34.15,.05,90.00
2016.10.26-12:00,.72,84.34,.74,87.10,.80,70.66,.98,74.96,.98,75.21,1.02,81.18,.84,84.91,.49,72.65,.38,59.24,.21,56.38,.16,31.69,.24,32.31,.05,90.00
2016.10.26-13:00,.66,81.66,.69,80.74,.82,68.98,.97,76.42,.97,76.12,.99,83.61,.81,86.02,.48,72.69,.38,61.37,.20,55.67,.15,26.62,.22,28.65,.04,90.00
2016.10.26-14:00,.63,80.98,.67,77.39,.86,69.89,.97,77.76,.96,76.45,.95,84.91,.76,85.59,.47,71.73,.39,65.06,.19,57.56,.14,22.57,.21,23.73,.03,90.00
2016.10.26-15:00,.61,79.97,.67,74.76,.91,71.52,.98,78.49,.97,76.28,.90,84.99,.72,83.93,.46,70.52,.39,69.68,.19,61.17,.15,22.01,.21,20.46,.03,90.00
2016.10.26-16:00,.60,76.50,.68,71.30,.95,72.85,.99,78.63,.98,75.93,.86,83.98,.69,81.51,.46,69.65,.39,74.32,.20,64.39,.16,24.84,.23,20.56,.03,90.00
2016.10.26-17:00,.66,70.83,.71,67.92,.99,74.18,1.01,78.64,1.01,75.83,.83,82.18,.68,78.87,.47,69.11,.39,77.65,.20,65.57,.18,28.99,.26,23.17,.03,90.00
2016.10.26-18:00,.72,68.05,.76,65.60,1.02,75.98,1.02,78.86,1.03,76.30,.83,80.22,.69,76.59,.50,68.54,.39,78.59,.21,64.22,.20,33.09,.28,27.01,.04,90.00
2016.10.26-19:00,.78,67.13,.82,65.12,1.05,78.43,1.03,79.45,1.05,77.39,.84,78.65,.71,74.82,.53,67.73,.39,77.10,.21,61.18,.21,36.54,.29,31.07,.05,90.00
2016.10.26-20:00,.88,68.52,.91,66.51,1.07,81.24,1.03,80.31,1.05,78.89,.84,77.66,.73,73.62,.55,67.13,.39,74.07,.21,57.29,.21,38.61,.30,34.35,.05,90.00
2016.10.26-21:00,.96,70.37,.99,68.53,1.07,83.60,1.01,80.96,1.03,80.37,.84,77.08,.74,73.00,.58,67.81,.39,71.35,.21,52.87,.21,38.79,.30,36.36,.05,90.00
2016.10.26-22:00,1.02,72.23,1.04,70.35,1.04,84.98,.97,81.02,.99,81.31,.83,76.58,.75,72.75,.59,70.25,.40,70.55,.21,48.04,.20,36.93,.29,36.97,.05,90.00
2016.10.26-23:00,1.08,73.52,1.09,71.69,1.00,85.26,.94,80.64,.95,81.61,.83,76.22,.75,72.82,.60,73.98,.39,71.63,.21,43.19,.18,33.50,.27,36.33,.04,90.00
2016.10.26-24:00,1.12,74.13,1.12,72.38,.97,84.54,.91,80.26,.91,81.49,.82,76.13,.76,73.20,.59,78.27,.37,73.94,.21,39.84,.17,29.50,.25,34.47,.04,90.00
2016.10.27-01:00,1.14,74.78,1.14,73.16,.93,83.37,.89,80.08,.88,80.93,.81,75.90,.75,73.36,.57,82.10,.36,76.80,.21,40.06,.16,25.85,.23,30.89,.03,90.00
2016.10.27-02:00,1.14,76.84,1.14,75.16,.90,82.62,.87,80.10,.85,79.91,.80,75.02,.76,72.83,.54,84.48,.34,79.22,.21,44.15,.15,24.03,.22,26.42,.02,90.00
2016.10.27-03:00,1.10,80.53,1.11,78.33,.87,82.33,.86,80.04,.85,78.51,.80,73.61,.77,72.03,.51,85.36,.32,80.40,.22,49.92,.15,25.34,.22,23.85,.02,90.00
2016.10.27-04:00,1.03,85.62,1.06,82.12,.85,82.07,.86,79.40,.86,76.81,.82,72.00,.79,71.59,.49,85.26,.31,80.11,.23,54.79,.16,29.32,.23,24.79,.03,90.00
2016.10.27-05:00,.95,91.89,1.00,86.27,.83,81.83,.87,78.02,.89,74.97,.86,70.48,.82,71.75,.47,84.42,.31,78.30,.25,57.90,.18,34.27,.25,28.30,.04,90.00
2016.10.27-06:00,.89,98.72,.97,90.37,.84,81.77,.89,76.18,.93,73.22,.91,69.30,.85,72.28,.46,82.41,.31,74.69,.26,59.62,.20,38.70,.27,32.45,.05,90.00
2016.10.27-07:00,.86,104.76,.95,93.92,.87,81.96,.93,74.48,.98,71.96,.96,68.80,.88,73.05,.45,78.87,.32,69.41,.28,60.69,.21,41.92,.29,35.73,.06,90.00
2016.10.27-08:00,.84,109.15,.93,96.24,.89,82.01,.97,73.43,1.02,71.69,1.01,69.47,.89,74.29,.44,74.47,.34,63.88,.28,61.59,.22,43.47,.30,37.24,.06,90.00
2016.10.27-09:00,.80,111.54,.89,96.27,.89,81.02,.99,72.93,1.05,72.52,1.04,71.30,.90,76.17,.45,71.06,.37,60.22,.28,62.40,.22,43.00,.30,36.73,.06,90.00
2016.10.27-10:00,.71,112.45,.82,93.01,.87,78.13,1.00,72.54,1.05,73.98,1.04,73.72,.89,78.40,.47,69.78,.39,59.14,.27,62.78,.20,40.90,.29,35.06,.06,90.00
2016.10.27-11:00,.61,111.89,.76,86.60,.85,73.76,.99,72.31,1.04,75.61,1.03,76.19,.87,80.58,.48,70.35,.41,60.07,.24,62.09,.19,37.47,.27,32.94,.05,90.00
2016.10.27-12:00,.52,106.23,.73,78.85,.85,69.31,.99,72.37,1.00,76.91,1.00,78.19,.83,82.12,.48,71.54,.42,62.15,.21,60.41,.17,33.40,.26,30.83,.05,90.00
2016.10.27-13:00,.46,96.47,.74,72.57,.87,66.40,.98,72.92,.97,77.60,.96,79.42,.78,82.58,.47,72.25,.41,64.87,.19,58.41,.15,28.93,.24,28.40,.04,90.00
2016.10.27-14:00,.44,85.88,.77,69.43,.92,65.76,.99,74.05,.95,77.73,.92,79.95,.74,82.04,.47,72.43,.41,68.36,.17,57.20,.14,24.18,.22,25.13,.04,90.00
2016.10.27-15:00,.45,75.41,.80,68.41,.96,66.64,1.00,75.45,.94,77.37,.89,79.86,.72,80.82,.47,72.41,.41,72.56,.17,57.72,.14,21.24,.22,22.16,.03,90.00
2016.10.27-16:00,.49,63.41,.82,67.81,1.00,68.18,1.01,76.73,.94,76.69,.88,79.31,.70,79.22,.47,71.99,.41,76.53,.17,59.16,.14,22.73,.23,21.90,.03,90.00